DW7214 Weather Reports


time (UTC)temp
F
wind
direction
speed
knots
gust
knots
rain 1hr
in
rain 24hr
in
rain mn
in
humidity
%
barometer
mb
20260503211512 86 350 2.6 7.0 0.00 0.00 0.00 36 1010.0
20260503210025 86 235 1.7 5.2 0.00 0.00 0.00 35 1010.1
20260503204533 85 332 1.7 6.1 0.00 0.00 0.00 37 1010.3
20260503203025 85 311 2.6 7.0 0.00 0.00 0.00 37 1010.4
20260503201526 84 336 3.5 5.2 0.00 0.00 0.00 38 1010.6
20260503200016 83 337 1.7 5.2 0.00 0.00 0.00 37 1010.8
20260503194523 83 288 2.6 7.8 0.00 0.00 0.00 38 1011.0
20260503193032 82 304 2.6 7.8 0.00 0.00 0.00 39 1011.2
20260503191526 81 338 2.6 7.8 0.00 0.00 0.00 40 1011.3
20260503190013 80 347 3.5 8.7 0.00 0.00 0.00 42 1011.5
20260503184532 80 331 4.3 7.8 0.00 0.00 0.00 44 1011.6
20260503183024 79 277 3.5 7.0 0.00 0.00 0.00 46 1011.7
20260503181526 78 352 2.6 7.8 0.00 0.00 0.00 49 1011.7
20260503180031 77 334 3.5 7.0 0.00 0.00 0.00 52 1011.8
20260503174515 76 289 2.6 7.0 0.00 0.00 0.00 53 1012.0
20260503173039 75 296 2.6 7.8 0.00 0.00 0.00 56 1011.9
20260503171524 73 310 1.7 4.3 0.00 0.00 0.00 62 1012.1
20260503081513 53 221 0.0 1.7 0.00 0.00 0.00 91 1013.2
20260503071515 55 223 2.6 3.5 0.00 0.00 0.00 91 1013.1
20260503054525 59 205 0.9 1.7 0.00 0.00 0.00 84 1013.4
20260503053029 60 17 0.9 1.7 0.00 0.00 0.00 83 1013.4
20260503051517 60 38 1.7 2.6 0.00 0.00 0.00 83 1013.3
20260503050021 61 46 0.0 1.7 0.00 0.00 0.00 82 1013.1
20260503044512 61 92 0.9 3.5 0.00 0.00 0.00 82 1013.3
20260503043022 61 219 0.0 1.7 0.00 0.00 0.00 81 1013.0
20260503041522 62 240 1.7 3.5 0.00 0.00 0.00 78 1012.8
20260503040021 63 279 0.9 1.7 0.00 0.00 0.00 77 1012.8
20260503034527 63 296 0.0 1.7 0.00 0.00 0.00 76 1012.7
20260503033018 64 238 0.9 4.3 0.00 0.00 0.00 76 1012.7
20260503031521 64 257 0.9 5.2 0.00 0.00 0.00 76 1012.5
20260503030022 64 255 3.5 6.1 0.00 0.00 0.00 77 1012.7
20260503024520 65 245 1.7 3.5 0.00 0.00 0.00 75 1013.1
20260503023014 65 190 0.0 2.6 0.00 0.00 0.00 72 1013.5
20260503021517 65 44 1.7 8.7 0.00 0.00 0.00 71 1013.7
20260503020022 66 32 2.6 5.2 0.00 0.00 0.00 70 1013.5
20260503014522 67 74 0.0 2.6 0.00 0.00 0.00 69 1012.9
20260503013020 68 86 0.0 1.7 0.00 0.00 0.00 67 1012.6
20260503011520 68 155 0.9 3.5 0.00 0.00 0.00 67 1012.7
20260503010022 68 220 0.9 6.1 0.00 0.00 0.00 67 1012.7
20260503004521 69 57 0.9 3.5 0.00 0.00 0.00 62 1012.5
20260503003024 69 57 0.9 2.6 0.00 0.00 0.00 62 1012.3
20260503001524 69 327 0.9 2.6 0.00 0.00 0.00 63 1012.2
20260503000018 68 295 0.9 2.6 0.00 0.00 0.00 63 1012.4
20260502234524 67 304 0.9 5.2 0.00 0.00 0.00 64 1012.4
20260502233023 67 322 0.9 3.5 0.00 0.00 0.00 64 1012.7
20260502231526 67 16 1.7 3.5 0.00 0.00 0.00 64 1013.1
20260502230018 67 344 2.6 5.2 0.00 0.00 0.00 64 1013.3
20260502224524 67 352 1.7 4.3 0.00 0.00 0.00 66 1013.4
20260502223008 67 333 2.6 5.2 0.00 0.00 0.00 66 1013.6
20260502221511 66 342 0.9 6.1 0.00 0.00 0.00 66 1013.9
20260502220019 65 36 2.6 8.7 0.00 0.00 0.00 66 1013.9
20260502214528 65 31 2.6 7.8 0.00 0.00 0.00 68 1014.1
20260502213006 64 352 1.7 5.2 0.00 0.00 0.00 70 1014.3